Petersburg, VA

2:24 PM EST on January 21, 2018 (GMT -0500)
Dinwiddie County

Weather History for KPTB - March, 2013

Change the Weather History Date:

Wednesday, March 6, 2013

  Actual Average (KRIC) Record (KRIC)
Temperature  
Mean Temperature 40 °F -  
Max Temperature 44 °F 55 °F 84 °F (1961)
Min Temperature 35 °F 34 °F 15 °F (1960)
Degree Days  
Heating Degree Days 26    
Moisture  
Dew Point 36 °F    
Average Humidity 91    
Maximum Humidity 100    
Minimum Humidity 70    
Precipitation  
Precipitation 0.94 in - - ()
Sea Level Pressure  
Sea Level Pressure 29.61 in    
Wind  
Wind Speed 13 mph (NW)    
Max Wind Speed 25 mph    
Max Gust Speed 41 mph    
Visibility 6 miles    
Events Rain , Snow , Thunderstorm    
Averages and records for this station are not official NWS values.
T = Trace of Precipitation, MM = Missing Value Source: NWS Daily Summary

Daily Weather History Graph

Daily Weather History Graph

Search for Another Location

Airport or City:

Trip Planner

Search our weather history database for the weather conditions in past years. The results will help you decide how hot, cold, wet, or windy it might be!

Date:

Astronomy

Mar. 06, 2013 Rise Set
Actual Time 6:33 AM EST 6:09 PM EST
Civil Twilight 6:07 AM EST 6:35 PM EST
Nautical Twilight 5:37 AM EST 7:05 PM EST
Astronomical Twilight 5:07 AM EST 7:35 PM EST
Moon 2:35 AM EST (3/6) 12:54 PM EST (3/6)
Length of Visible Light 12h 27m
Length of Day
11h 35m
Waning Crescent, 30% of the Moon is Illuminated
Mar 6
Waning Crescent
Mar 11
New
Mar 19
First Quarter
Mar 27
Full
Apr 3
Last Quarter

Hourly Weather History & Observations

Time (EST) Temp. Windchill Dew Point Humidity Pressure Visibility Wind Dir Wind Speed Gust Speed Precip Events Conditions
12:15 AM 39.2 °F 32.0 °F 37.4 °F 93% 29.65 in 5.0 mi ENE 11.5 mph 17.3 mph 0.07 in Rain Light Rain
12:35 AM 39.2 °F 32.0 °F 37.4 °F 93% 29.63 in 7.0 mi East 11.5 mph - 0.11 in Rain Light Rain
12:55 AM 39.2 °F 33.6 °F 39.2 °F 100% 29.63 in 7.0 mi ENE 8.1 mph - 0.13 in Rain Light Rain
1:15 AM 39.2 °F 34.2 °F 39.2 °F 100% 29.62 in 7.0 mi ENE 6.9 mph - 0.02 in Rain Rain
1:35 AM 41.0 °F 38.0 °F 39.2 °F 93% 29.60 in 7.0 mi ENE 4.6 mph - 0.04 in Rain Light Rain
1:55 AM 41.0 °F 35.2 °F 39.2 °F 93% 29.58 in 7.0 mi ENE 9.2 mph - 0.05 in   Light Drizzle
2:15 AM 41.0 °F 34.7 °F 39.2 °F 93% 29.55 in 5.0 mi ENE 10.4 mph - N/A Rain Light Rain
2:35 AM 42.8 °F 38.0 °F 39.2 °F 87% 29.54 in 5.0 mi ENE 8.1 mph - 0.01 in Rain Light Rain
2:55 AM 42.8 °F 37.0 °F 41.0 °F 93% 29.51 in 5.0 mi ENE 10.4 mph - 0.02 in Rain Light Rain
3:15 AM 42.8 °F 36.6 °F 41.0 °F 93% 29.50 in 5.0 mi ENE 11.5 mph - N/A   Drizzle
3:35 AM 42.8 °F 37.0 °F 41.0 °F 93% 29.48 in 7.0 mi ENE 10.4 mph - N/A   Overcast
3:55 AM 42.8 °F 37.0 °F 42.8 °F 100% 29.46 in 7.0 mi ENE 10.4 mph - 0.01 in   Light Drizzle
4:15 AM 44.6 °F - 42.8 °F 93% 29.44 in 10.0 mi North - - 0.02 in Rain Light Rain
4:35 AM 44.6 °F - 42.8 °F 93% 29.43 in 4.0 mi North - - 0.03 in Rain Light Rain
4:55 AM 44.6 °F 39.7 °F 42.8 °F 93% 29.44 in 5.0 mi West 9.2 mph - 0.04 in Rain Light Rain
5:55 AM 41.0 °F 34.7 °F 39.2 °F 93% 29.43 in 5.0 mi West 10.4 mph - 0.11 in Rain Light Rain
6:15 AM 39.2 °F 32.0 °F 37.4 °F 93% 29.43 in 7.0 mi WNW 11.5 mph 16.1 mph 0.03 in Rain Light Rain
6:35 AM 37.4 °F 29.8 °F 35.6 °F 93% 29.43 in 7.0 mi WNW 11.5 mph 16.1 mph 0.04 in Rain Light Rain
6:55 AM 35.6 °F 27.5 °F 35.6 °F 100% 29.43 in 5.0 mi WNW 11.5 mph - 0.05 in Rain Light Rain
7:15 AM 35.6 °F 28.0 °F 35.6 °F 100% 29.42 in 2.5 mi WNW 10.4 mph 17.3 mph 0.01 in Rain , Thunderstorm Light Thunderstorms and Rain
7:35 AM 35.6 °F 27.5 °F 35.6 °F 100% 29.42 in 1.8 mi West 11.5 mph 20.7 mph 0.02 in   Light Drizzle
7:55 AM 35.6 °F 29.2 °F 33.8 °F 93% 29.42 in 1.8 mi West 8.1 mph 17.3 mph 0.03 in Rain Light Rain
8:15 AM 35.6 °F 28.6 °F 33.8 °F 93% 29.42 in 2.5 mi West 9.2 mph - 0.01 in Rain Rain
8:35 AM 35.6 °F 28.6 °F 33.8 °F 93% 29.42 in 1.8 mi West 9.2 mph - 0.02 in Rain Light Rain
8:55 AM 35.6 °F 28.0 °F 33.8 °F 93% 29.41 in 1.8 mi West 10.4 mph 17.3 mph 0.03 in Rain Light Rain
9:15 AM 35.6 °F 27.1 °F 33.8 °F 93% 29.41 in 1.8 mi West 12.7 mph 19.6 mph 0.02 in Rain Light Rain
9:35 AM 35.6 °F 28.6 °F 33.8 °F 93% 29.41 in 0.5 mi WNW 9.2 mph 17.3 mph 0.02 in Snow Light Snow
9:55 AM 35.6 °F 26.6 °F 33.8 °F 93% 29.41 in 1.0 mi WNW 13.8 mph 18.4 mph 0.03 in Snow Light Snow
10:15 AM 35.6 °F 27.1 °F 33.8 °F 93% 29.41 in 1.5 mi WNW 12.7 mph - 0.02 in Snow Light Snow
10:35 AM 35.6 °F 25.9 °F 33.8 °F 93% 29.42 in 1.5 mi WNW 16.1 mph 20.7 mph 0.04 in Snow Light Snow
10:55 AM 35.6 °F 26.6 °F 33.8 °F 93% 29.43 in 0.8 mi WNW 13.8 mph - 0.05 in Snow Light Snow
11:15 AM 35.6 °F 26.2 °F 33.8 °F 93% 29.43 in 1.8 mi WNW 15.0 mph 21.9 mph 0.04 in Snow Light Snow
11:35 AM 35.6 °F 26.2 °F 35.6 °F 100% 29.44 in 3.0 mi NW 15.0 mph 21.9 mph 0.08 in Rain Light Rain
11:55 AM 35.6 °F 26.6 °F 33.8 °F 93% 29.44 in 2.0 mi NW 13.8 mph 24.2 mph 0.11 in   Overcast
12:15 PM 35.6 °F 25.2 °F 35.6 °F 100% 29.45 in 7.0 mi NW 18.4 mph 31.1 mph 0.03 in Rain Light Rain
12:35 PM 37.4 °F 28.5 °F 35.6 °F 93% 29.46 in 7.0 mi NW 15.0 mph 25.3 mph 0.06 in Rain Light Rain
12:55 PM 37.4 °F 27.8 °F 35.6 °F 93% 29.48 in 5.0 mi NW 17.3 mph 26.5 mph 0.08 in Rain Light Rain
1:15 PM 37.4 °F 28.9 °F 35.6 °F 93% 29.48 in 10.0 mi NW 13.8 mph 27.6 mph 0.01 in Rain Light Rain
1:35 PM 37.4 °F 28.5 °F 35.6 °F 93% 29.50 in 2.0 mi NNW 15.0 mph 26.5 mph 0.04 in Rain Light Rain
1:55 PM 35.6 °F 24.8 °F 35.6 °F 100% 29.51 in 2.0 mi NW 19.6 mph 31.1 mph 0.10 in Snow Light Snow
2:15 PM 37.4 °F 26.9 °F 35.6 °F 93% 29.53 in 5.0 mi NW 20.7 mph 27.6 mph 0.03 in Snow Light Snow
2:35 PM 37.4 °F 27.5 °F 35.6 °F 93% 29.55 in 7.0 mi NW 18.4 mph 25.3 mph 0.04 in Rain Light Rain
2:55 PM 37.4 °F 27.8 °F 35.6 °F 93% 29.58 in 7.0 mi NW 17.3 mph 28.8 mph 0.05 in Rain Light Rain
3:15 PM 37.4 °F 26.9 °F 35.6 °F 93% 29.60 in 7.0 mi NW 20.7 mph 31.1 mph N/A Rain Light Rain
3:35 PM 37.4 °F 26.9 °F 35.6 °F 93% 29.62 in 7.0 mi NW 20.7 mph 34.5 mph 0.01 in Rain Light Rain
3:55 PM 37.4 °F 27.2 °F 35.6 °F 93% 29.64 in 10.0 mi NNW 19.6 mph 33.4 mph 0.01 in Rain Light Rain
4:15 PM 37.4 °F 26.6 °F 35.6 °F 93% 29.66 in 10.0 mi NW 21.9 mph 33.4 mph 0.01 in Rain Light Rain
4:35 PM 39.2 °F 29.6 °F 35.6 °F 87% 29.69 in 10.0 mi NW 19.6 mph 31.1 mph 0.01 in Rain Light Rain
4:55 PM 39.2 °F 30.2 °F 35.6 °F 87% 29.71 in 10.0 mi NNW 17.3 mph 36.8 mph 0.02 in   Light Drizzle
5:15 PM 39.2 °F 28.5 °F 35.6 °F 87% 29.74 in 10.0 mi NW 24.2 mph 36.8 mph N/A Rain Light Rain
5:35 PM 39.2 °F 29.6 °F 35.6 °F 87% 29.77 in 10.0 mi NW 19.6 mph 29.9 mph N/A Rain Light Rain
5:55 PM 39.2 °F 29.0 °F 37.4 °F 93% 29.79 in 10.0 mi NNW 21.9 mph 31.1 mph N/A   Overcast
6:15 PM 39.2 °F 28.7 °F 37.4 °F 93% 29.81 in 10.0 mi NW 23.0 mph 29.9 mph N/A   Light Drizzle
6:35 PM 39.2 °F 28.3 °F 37.4 °F 93% 29.83 in 10.0 mi NNW 25.3 mph 41.4 mph 0.01 in Rain Light Rain
6:55 PM 39.2 °F 29.3 °F 37.4 °F 93% 29.86 in 7.0 mi NNW 20.7 mph 31.1 mph 0.01 in Rain Light Rain
7:15 PM 39.2 °F 29.0 °F 37.4 °F 93% 29.87 in 10.0 mi NNW 21.9 mph 32.2 mph N/A Rain Light Rain
7:35 PM 39.2 °F 29.8 °F 37.4 °F 93% 29.88 in 10.0 mi NNW 18.4 mph 28.8 mph 0.01 in Rain Light Rain
7:55 PM 39.2 °F 29.6 °F 37.4 °F 93% 29.89 in 10.0 mi NNW 19.6 mph 25.3 mph 0.01 in   Light Drizzle
8:15 PM 41.0 °F 32.8 °F 35.6 °F 81% 29.91 in 10.0 mi NNW 16.1 mph 25.3 mph N/A Rain Light Rain
8:35 PM 41.0 °F 33.1 °F 35.6 °F 81% 29.92 in 10.0 mi NW 15.0 mph 20.7 mph N/A   Overcast
8:55 PM 41.0 °F 33.5 °F 35.6 °F 81% 29.93 in 10.0 mi NNW 13.8 mph 20.7 mph N/A   Overcast
9:35 PM 41.0 °F 33.5 °F 33.8 °F 76% 29.93 in 10.0 mi NNW 13.8 mph 18.4 mph N/A   Overcast
9:55 PM 41.0 °F 33.1 °F 33.8 °F 76% 29.94 in 10.0 mi NW 15.0 mph 18.4 mph N/A   Scattered Clouds
10:15 PM 41.0 °F 33.5 °F 33.8 °F 76% 29.94 in 10.0 mi NNW 13.8 mph 18.4 mph N/A   Scattered Clouds
10:35 PM 41.0 °F 34.3 °F 32.0 °F 70% 29.96 in 10.0 mi NNW 11.5 mph 21.9 mph N/A   Clear
10:55 PM 41.0 °F 34.3 °F 32.0 °F 70% 29.96 in 10.0 mi NNW 11.5 mph 17.3 mph N/A   Clear
11:15 PM 41.0 °F 35.2 °F 32.0 °F 70% 29.96 in 10.0 mi NNW 9.2 mph - N/A   Clear
11:35 PM 39.2 °F 33.0 °F 32.0 °F 75% 29.96 in 10.0 mi NW 9.2 mph - N/A   Clear
11:55 PM 39.2 °F 32.5 °F 30.2 °F 70% 29.97 in 10.0 mi NW 10.4 mph 16.1 mph N/A   Clear